Location: Ocean City
(38.3360°N, 75.0850°W)
Time: 17:06:40
(UTC-04:00)

Max Valier Satellite - Pass Details

Date: 26 May 2019
Orbit: 492 x 507 km, 97.4° (Epoch: 16 June)

Event Time Altitude Azimuth Distance (km) Brightness Sun altitude
Exits shadow 22:46:14 19° 241° (WSW) 1,252 ? -22.9°
Maximum altitude 22:47:17 21° 265° (W) 1,168 ? -23.1°
Drops below altitude 10° 22:50:08 10° 316° (NW) 1,716 ? -23.4°
Sets 22:52:37 0° 333° (NNW) 2,609 ? -23.6°
